TimeEST,TemperatureF,Dew PointF,Humidity,Sea Level PressureIn,VisibilityMPH,Wind Direction,Wind SpeedMPH,Gust SpeedMPH,PrecipitationIn,Events,Conditions,WindDirDegrees,DateUTC
12:54 AM,25.0,21.0,85,30.71,10.0,Calm,Calm,-,N/A,,Clear,0,2012-11-18 05:54:00
1:54 AM,25.0,19.9,81,30.72,10.0,Calm,Calm,-,N/A,,Clear,0,2012-11-18 06:54:00
2:54 AM,25.0,21.9,88,30.71,10.0,ENE,3.5,-,N/A,,Clear,70,2012-11-18 07:54:00
3:54 AM,25.0,21.0,85,30.71,10.0,Calm,Calm,-,N/A,,Clear,0,2012-11-18 08:54:00
4:54 AM,24.1,21.0,88,30.71,10.0,ENE,6.9,-,N/A,,Clear,70,2012-11-18 09:54:00
5:54 AM,23.0,19.0,85,30.72,10.0,Calm,Calm,-,N/A,,Clear,0,2012-11-18 10:54:00
6:54 AM,23.0,19.9,88,30.73,10.0,Calm,Calm,-,N/A,,Clear,0,2012-11-18 11:54:00
7:54 AM,26.1,21.0,81,30.74,10.0,East,3.5,-,N/A,,Clear,80,2012-11-18 12:54:00
8:54 AM,28.4,21.2,74,30.72,10.0,Calm,Calm,-,N/A,,Clear,0,2012-11-18 13:54:00
9:54 AM,33.1,26.1,75,30.74,10.0,Calm,Calm,-,N/A,,Scattered Clouds,0,2012-11-18 14:54:00
10:54 AM,37.0,28.0,70,30.71,10.0,Calm,Calm,-,N/A,,Clear,0,2012-11-18 15:54:00
11:54 AM,41.0,26.1,55,30.69,10.0,Calm,Calm,-,N/A,,Clear,0,2012-11-18 16:54:00
12:54 PM,43.0,26.1,51,30.66,10.0,NNE,3.5,-,N/A,,Clear,20,2012-11-18 17:54:00
1:54 PM,44.1,26.1,49,30.65,10.0,North,3.5,-,N/A,,Clear,360,2012-11-18 18:54:00
2:54 PM,44.1,26.1,49,30.64,10.0,NW,3.5,-,N/A,,Clear,320,2012-11-18 19:54:00
3:54 PM,42.1,26.1,53,30.64,10.0,NNW,3.5,-,N/A,,Clear,330,2012-11-18 20:54:00
4:54 PM,37.9,26.1,62,30.65,10.0,Calm,Calm,-,N/A,,Clear,0,2012-11-18 21:54:00
5:54 PM,32.0,25.0,75,30.65,10.0,Calm,Calm,-,N/A,,Clear,0,2012-11-18 22:54:00
6:54 PM,30.9,25.0,79,30.65,10.0,Calm,Calm,-,N/A,,Clear,0,2012-11-18 23:54:00
7:54 PM,28.9,24.1,82,30.64,10.0,Calm,Calm,-,N/A,,Clear,0,2012-11-19 00:54:00
8:54 PM,30.0,24.1,79,30.63,10.0,Calm,Calm,-,N/A,,Clear,0,2012-11-19 01:54:00
9:54 PM,28.0,23.0,81,30.62,10.0,Calm,Calm,-,N/A,,Clear,0,2012-11-19 02:54:00
10:54 PM,27.0,23.0,85,30.61,10.0,Calm,Calm,-,N/A,,Clear,0,2012-11-19 03:54:00
11:54 PM,26.1,21.0,81,30.61,10.0,Calm,Calm,-,N/A,,Clear,0,2012-11-19 04:54:00